STARLINK-2420, 47831

Orbit data source: Space-Track

STARLINK-2420, 47831 is a payload satellite owned by SpaceX/Seattle (US) in LEO that was launched on Thu, 11 Mar 2021 UTC via an FALCON 9 launch vehicle from the Air Force Eastern Test Range (AFETR). Payload-class satellites include a variety of spacecraft equipped with specific instruments for various scientific and technological missions. These include communications satellites like Starlink; space stations such as the ISS; scientific satellites like the Hubble; Earth observation satellites from companies like Planet Labs, Umbra, and HawkEye 360; GPS; miniature CubeSats for education and research; and military/defense satellites.

Loading next visibility...
Identifier
47831, 2021-018AW
Orbit
LEO
Country
Flag of USUS
Related business
Manufacturer
SpaceX/Seattle
Mission
Operational Commercial Communications
Bus & Motor
STARLINK, Unknown motor
Mass
260 kg wet, ~248 kg dry
Launch date (UTC)
2021-03-11 (5 years ago)
Launch vehicle
FALCON 9
Launch site
Air Force Eastern Test Range (AFETR)
Object type
Payload
Rocket body
Debris
Shape & HBR
Box + 1 Pan, 10.1 m
Radar Cross Section
13.562 m², Large (>1 m²)

Expand to show TLE details & history
Last TLE update: 11 hours ago

TLE from 11 hours ago
0 STARLINK-2420
1 47831U 21018AW  26120.20085262  .00044872  00000-0  15273-2 0  9996
2 47831  53.1595   3.2052 0001224 113.4262 246.6867 15.30001936284655
Epoch: 2026-04-30T04:49Z
TLE epoch observation values (Epoch: 2026-04-30T04:49:13.666Z)
Latitude
-0.00005°
Longitude
72.74735°
Altitude
477.038 km
Speed
7.628 km/s
True Right ascension
00h 12m 49s
True Declination
0° 00' 00"
Sunlit
Object was in daylight at epoch
Visualization orbit readout
Latitude
Unknown
Longitude
Unknown
Altitude
Unknown
Speed
Unknown
Apparent Right ascension
Unknown
Apparent Declination
Unknown
Sunlit
N/A
Visualization observer readout
Local Sidereal Time
22:58:22
Azimuth
Unknown
Elevation
Unknown
Doppler factor
Unknown
Orbital elements
Apogee altitude
476.902 km
Perigee altitude
475.224 km
Semi-major axis
6,854.2 km
Eccentricity
0.00012
Inclination
53.1595°
RAAN
3.2052°
Arg. of periapsis
113.4262°
True anomaly
246.67382°
Mean anomaly
246.6867°
Eccentric anomaly
246.68026°
Mean motion
3.82479 °/min
Orbital period
94.12 mins
BSTAR
0.0015273
Loading maneuver chart data...
Computing Atmospheric mass density...
Loading historical data...
Loading historical data...
Loading historical data...
Loading historical data...
Loading historical data...
Loading historical data...
Loading historical data...

Documentation

Showing up to 5 results
|